Time,TemperatureF,DewpointF,PressureIn,WindDirection,WindDirectionDegrees,WindSpeedMPH,WindSpeedGustMPH,Humidity,HourlyPrecipIn,Conditions,Clouds,dailyrainin,SolarRadiationWatts/m^2,SoftwareType,DateUTC
2013-03-12 00:10:00,51.8,49.8,29.82,SSE,153,5.0,5.0,93,0.00,-RA,SKC,0.00,0.0,WeatherDisplay:10.37,2013-03-12 04:10:00,
2013-03-12 00:20:00,51.8,49.8,29.82,SSE,157,5.0,5.0,93,0.00,-RA,SKC,0.00,0.0,WeatherDisplay:10.37,2013-03-12 04:20:00,
2013-03-12 00:30:00,51.7,49.7,29.81,SE,146,5.0,5.0,93,0.00,OVC,SKC,0.00,0.0,WeatherDisplay:10.37,2013-03-12 04:30:00,
2013-03-12 00:40:00,51.6,49.6,29.81,SSE,157,5.0,5.0,93,0.00,OVC,SKC,0.00,0.0,WeatherDisplay:10.37,2013-03-12 04:40:00,
2013-03-12 00:50:00,51.6,49.6,29.79,SSE,153,5.0,5.0,93,0.00,OVC,SKC,0.00,0.0,WeatherDisplay:10.37,2013-03-12 04:50:00,
2013-03-12 01:00:00,51.5,49.5,29.80,SSE,150,5.0,5.0,93,0.00,OVC,SKC,0.00,0.0,WeatherDisplay:10.37,2013-03-12 05:00:00,
2013-03-12 01:10:00,51.5,49.8,29.80,SSE,150,5.0,5.0,94,0.00,OVC,SKC,0.00,0.0,WeatherDisplay:10.37,2013-03-12 05:10:00,
2013-03-12 01:20:00,51.5,49.8,29.78,SE,140,9.0,9.0,94,0.00,-RA,SKC,0.00,0.0,WeatherDisplay:10.37,2013-03-12 05:20:00,
2013-03-12 01:30:00,51.5,49.8,29.78,SSE,148,6.0,9.0,94,0.00,OVC,SKC,0.00,0.0,WeatherDisplay:10.37,2013-03-12 05:30:00,
2013-03-12 01:40:00,51.5,49.8,29.78,SE,138,6.0,6.0,94,0.00,OVC,SKC,0.00,0.0,WeatherDisplay:10.37,2013-03-12 05:40:00,
2013-03-12 01:50:00,51.5,49.8,29.79,SSE,148,6.0,6.0,94,0.00,OVC,SKC,0.00,0.0,WeatherDisplay:10.37,2013-03-12 05:50:00,
2013-03-12 02:00:00,51.5,49.8,29.79,SSE,160,7.0,7.0,94,0.00,-RA,SKC,0.00,0.0,WeatherDisplay:10.37,2013-03-12 06:00:00,
2013-03-12 02:10:00,51.5,49.8,29.79,SSE,157,7.0,7.0,94,0.00,-RA,SKC,0.00,0.0,WeatherDisplay:10.37,2013-03-12 06:10:00,
2013-03-12 02:20:00,51.5,49.8,29.78,SSE,153,7.0,7.0,94,0.00,OVC,SKC,0.00,0.0,WeatherDisplay:10.37,2013-03-12 06:20:00,
2013-03-12 02:30:00,51.4,49.7,29.78,SSE,157,7.0,7.0,94,0.00,OVC,SKC,0.00,0.0,WeatherDisplay:10.37,2013-03-12 06:30:00,
2013-03-12 02:40:00,51.4,49.7,29.78,SE,146,7.0,7.0,94,0.00, +RA,SKC,0.00,0.0,WeatherDisplay:10.37,2013-03-12 06:40:00,
2013-03-12 02:50:00,51.3,49.6,29.78,SSE,157,7.0,7.0,94,0.00, +RA,SKC,0.00,0.0,WeatherDisplay:10.37,2013-03-12 06:50:00,
2013-03-12 03:00:00,51.2,49.6,29.77,SSE,157,7.0,7.0,94,0.00,OVC,SKC,0.00,0.0,WeatherDisplay:10.37,2013-03-12 07:00:00,
2013-03-12 03:10:00,51.2,49.5,29.76,SSE,153,7.0,7.0,94,0.00,OVC,SKC,0.00,0.0,WeatherDisplay:10.37,2013-03-12 07:10:00,
2013-03-12 03:20:00,51.2,49.5,29.75,SSE,157,7.0,7.0,94,0.00, +RA,SKC,0.00,0.0,WeatherDisplay:10.37,2013-03-12 07:20:00,
2013-03-12 03:30:00,51.1,49.4,29.75,SSE,153,7.0,7.0,94,0.00, +RA,SKC,0.00,0.0,WeatherDisplay:10.37,2013-03-12 07:30:00,
2013-03-12 03:40:00,51.1,49.4,29.74,SSE,156,7.0,7.0,94,0.00,OVC,SKC,0.00,0.0,WeatherDisplay:10.37,2013-03-12 07:40:00,
2013-03-12 03:50:00,51.1,49.5,29.73,ESE,105,6.0,7.0,94,0.00,OVC,SKC,0.00,0.0,WeatherDisplay:10.37,2013-03-12 07:50:00,
2013-03-12 04:00:00,51.1,49.7,29.72,East,100,6.0,6.0,95,0.00,OVC,SKC,0.00,0.0,WeatherDisplay:10.37,2013-03-12 08:00:00,
2013-03-12 04:10:00,51.1,49.7,29.72,East,90,3.0,6.0,95,0.00,OVC,SKC,0.00,0.0,WeatherDisplay:10.37,2013-03-12 08:10:00,
2013-03-12 04:20:00,51.0,49.6,29.71,East,100,3.0,3.0,95,0.00,OVC,SKC,0.00,0.0,WeatherDisplay:10.37,2013-03-12 08:20:00,
2013-03-12 04:30:00,51.0,49.6,29.71,East,93,3.0,3.0,95,0.00,OVC,SKC,0.00,0.0,WeatherDisplay:10.37,2013-03-12 08:30:00,
2013-03-12 04:40:00,51.0,49.6,29.70,East,97,3.0,3.0,95,0.00,OVC,SKC,0.00,0.0,WeatherDisplay:10.37,2013-03-12 08:40:00,
2013-03-12 04:50:00,51.0,49.6,29.69,East,100,3.0,3.0,95,0.00,-RA,SKC,0.00,0.0,WeatherDisplay:10.37,2013-03-12 08:50:00,
2013-03-12 05:00:00,51.0,49.6,29.69,East,93,3.0,3.0,95,0.00,-RA,SKC,0.00,0.0,WeatherDisplay:10.37,2013-03-12 09:00:00,
2013-03-12 05:10:00,51.1,49.7,29.69,East,97,3.0,3.0,95,0.00,-RA,SKC,0.00,0.0,WeatherDisplay:10.37,2013-03-12 09:10:00,
2013-03-12 05:20:00,51.2,49.8,29.69,ESE,104,3.0,3.0,95,0.00, +RA,SKC,0.00,0.0,WeatherDisplay:10.37,2013-03-12 09:20:00,
2013-03-12 05:30:00,51.2,49.8,29.70,East,93,3.0,3.0,95,0.00, +RA,SKC,0.00,0.0,WeatherDisplay:10.37,2013-03-12 09:30:00,
2013-03-12 05:40:00,51.3,49.9,29.69,East,90,3.0,3.0,95,0.00,OVC,SKC,0.00,0.0,WeatherDisplay:10.37,2013-03-12 09:40:00,
2013-03-12 05:50:00,51.3,49.9,29.70,East,93,3.0,3.0,95,0.00,OVC,SKC,0.00,0.0,WeatherDisplay:10.37,2013-03-12 09:50:00,
2013-03-12 06:00:00,51.2,49.8,29.70,NNW,339,7.0,7.0,95,0.00,OVC,SKC,0.00,0.0,WeatherDisplay:10.37,2013-03-12 10:00:00,
2013-03-12 06:10:00,51.0,49.0,29.70,NNW,333,7.0,7.0,93,0.00,OVC,SKC,0.00,0.0,WeatherDisplay:10.37,2013-03-12 10:10:00,
2013-03-12 06:20:00,50.5,48.3,29.71,NNW,330,7.0,7.0,92,0.00, +RA,SKC,0.00,0.0,WeatherDisplay:10.37,2013-03-12 10:20:00,
2013-03-12 06:30:00,49.7,46.5,29.71,NNW,333,7.0,7.0,89,0.00, +RA,SKC,0.00,0.0,WeatherDisplay:10.37,2013-03-12 10:30:00,
2013-03-12 06:40:00,48.7,45.3,29.72,WNW,298,12.0,12.0,88,0.00,OVC,SKC,0.00,0.0,WeatherDisplay:10.37,2013-03-12 10:40:00,
2013-03-12 06:50:00,47.8,44.1,29.72,SSW,212,12.0,12.0,87,0.00,OVC,SKC,0.00,0.0,WeatherDisplay:10.37,2013-03-12 10:50:00,
2013-03-12 07:00:00,46.8,43.4,29.73,WNW,290,12.0,21.0,88,0.00,OVC,SKC,0.00,0.0,WeatherDisplay:10.37,2013-03-12 11:00:00,
2013-03-12 07:10:00,46.1,42.7,29.73,WNW,288,8.0,21.0,88,0.00,-RA,SKC,0.00,0.0,WeatherDisplay:10.37,2013-03-12 11:10:00,
2013-03-12 07:20:00,45.4,42.1,29.74,WNW,288,8.0,20.0,88,0.00,-RA,SKC,0.00,0.0,WeatherDisplay:10.37,2013-03-12 11:20:00,
2013-03-12 07:30:00,44.9,41.5,29.75,WNW,290,8.0,20.0,88,0.00,-RA,SKC,0.00,0.0,WeatherDisplay:10.37,2013-03-12 11:30:00,
2013-03-12 07:40:00,44.5,41.5,29.75,WNW,290,10.0,20.0,89,0.00,OVC,SKC,0.00,0.0,WeatherDisplay:10.37,2013-03-12 11:40:00,
2013-03-12 07:50:00,44.4,41.1,29.75,West,266,7.0,20.0,88,0.00,-RA,SKC,0.00,0.0,WeatherDisplay:10.37,2013-03-12 11:50:00,
2013-03-12 08:00:00,43.9,40.0,29.75,West,266,7.0,20.0,86,0.00,-RA,SKC,0.00,0.0,WeatherDisplay:10.37,2013-03-12 12:00:00,
2013-03-12 08:10:00,43.2,39.3,29.75,West,260,7.0,20.0,86,0.00,-RA,SKC,0.00,0.0,WeatherDisplay:10.37,2013-03-12 12:10:00,
2013-03-12 08:20:00,42.7,39.4,29.76,West,272,8.0,20.0,88,0.00,OVC,SKC,0.00,0.0,WeatherDisplay:10.37,2013-03-12 12:20:00,
2013-03-12 08:30:00,42.4,38.8,29.77,West,272,8.0,8.0,87,0.00,OVC,SKC,0.00,0.0,WeatherDisplay:10.37,2013-03-12 12:30:00,
2013-03-12 08:40:00,42.2,38.6,29.77,West,272,7.0,8.0,87,0.00,OVC,SKC,0.00,0.0,WeatherDisplay:10.37,2013-03-12 12:40:00,
2013-03-12 08:50:00,42.0,38.4,29.78,West,272,7.0,7.0,87,0.00,OVC,SKC,0.00,0.0,WeatherDisplay:10.37,2013-03-12 12:50:00,
2013-03-12 09:00:00,41.9,38.3,29.78,SSW,202,7.0,7.0,87,0.00,OVC,SKC,0.00,0.0,WeatherDisplay:10.37,2013-03-12 13:00:00,
2013-03-12 09:10:00,42.0,38.4,29.79,WNW,285,7.0,7.0,87,0.00,OVC,SKC,0.00,0.0,WeatherDisplay:10.37,2013-03-12 13:10:00,
2013-03-12 09:20:00,42.3,38.4,29.79,WSW,245,7.0,7.0,86,0.00,OVC,SKC,0.00,0.0,WeatherDisplay:10.37,2013-03-12 13:20:00,
2013-03-12 09:30:00,42.5,38.0,29.80,West,264,7.0,7.0,84,0.00,OVC,SKC,0.00,0.0,WeatherDisplay:10.37,2013-03-12 13:30:00,
2013-03-12 09:40:00,41.9,37.7,29.81,West,272,7.0,7.0,85,0.00,OVC,SKC,0.00,0.0,WeatherDisplay:10.37,2013-03-12 13:40:00,
2013-03-12 09:50:00,41.7,37.2,29.82,WSW,247,8.0,8.0,84,0.00,OVC,SKC,0.00,0.0,WeatherDisplay:10.37,2013-03-12 13:50:00,
2013-03-12 10:00:00,41.4,36.9,29.83,West,264,8.0,8.0,84,0.00,OVC,SKC,0.00,0.0,WeatherDisplay:10.37,2013-03-12 14:00:00,
2013-03-12 10:10:00,41.3,36.8,29.82,SW,214,15.0,15.0,84,0.00,OVC,SKC,0.00,0.0,WeatherDisplay:10.37,2013-03-12 14:10:00,
2013-03-12 10:20:00,41.6,36.5,29.82,West,280,16.0,26.0,82,0.00,OVC,SKC,0.00,0.0,WeatherDisplay:10.37,2013-03-12 14:20:00,
2013-03-12 10:30:00,41.9,36.8,29.83,West,279,16.0,26.0,82,0.00,OVC,SKC,0.00,0.0,WeatherDisplay:10.37,2013-03-12 14:30:00,
2013-03-12 10:40:00,42.4,36.0,29.83,West,269,7.0,26.0,78,0.00,OVC,SKC,0.00,0.0,WeatherDisplay:10.37,2013-03-12 14:40:00,
2013-03-12 10:50:00,42.5,36.7,29.83,SSW,202,7.0,24.0,80,0.00,OVC,SKC,0.00,0.0,WeatherDisplay:10.37,2013-03-12 14:50:00,
2013-03-12 11:00:00,42.9,36.2,29.84,West,264,7.0,18.0,77,0.00,OVC,SKC,0.00,0.0,WeatherDisplay:10.37,2013-03-12 15:00:00,
2013-03-12 11:10:00,42.8,36.1,29.83,WSW,245,7.0,18.0,77,0.00,OVC,SKC,0.00,0.0,WeatherDisplay:10.37,2013-03-12 15:10:00,
2013-03-12 11:20:00,42.1,35.7,29.83,SW,225,12.0,18.0,78,0.00,OVC,SKC,0.00,0.0,WeatherDisplay:10.37,2013-03-12 15:20:00,
2013-03-12 11:30:00,41.7,35.6,29.84,SW,230,12.0,18.0,79,0.00,OVC,SKC,0.00,0.0,WeatherDisplay:10.37,2013-03-12 15:30:00,
2013-03-12 11:40:00,41.7,36.0,29.84,SE,146,7.0,18.0,80,0.00,OVC,SKC,0.00,0.0,WeatherDisplay:10.37,2013-03-12 15:40:00,
2013-03-12 11:50:00,42.1,36.1,29.84,West,264,7.0,7.0,79,0.00,OVC,SKC,0.00,0.0,WeatherDisplay:10.37,2013-03-12 15:50:00,
2013-03-12 12:00:00,42.5,36.1,29.84,SSW,206,8.0,20.0,78,0.00,OVC,SKC,0.00,0.0,WeatherDisplay:10.37,2013-03-12 16:00:00,
2013-03-12 12:10:00,42.8,36.1,29.84,SSW,202,8.0,20.0,77,0.00,OVC,SKC,0.00,0.0,WeatherDisplay:10.37,2013-03-12 16:10:00,
2013-03-12 12:20:00,42.9,35.9,29.84,SW,228,9.0,20.0,76,0.00,OVC,SKC,0.00,0.0,WeatherDisplay:10.37,2013-03-12 16:20:00,
2013-03-12 12:30:00,43.4,35.3,29.83,WNW,299,9.0,18.0,73,0.00,OVC,SKC,0.00,0.0,WeatherDisplay:10.37,2013-03-12 16:30:00,
2013-03-12 12:40:00,43.8,36.0,29.83,SW,216,12.0,21.0,74,0.00,OVC,SKC,0.00,0.0,WeatherDisplay:10.37,2013-03-12 16:40:00,
2013-03-12 12:50:00,44.1,36.0,29.83,SE,127,10.0,24.0,73,0.00,OVC,SKC,0.00,0.0,WeatherDisplay:10.37,2013-03-12 16:50:00,
2013-03-12 13:00:00,44.1,35.7,29.83,WNW,290,10.0,24.0,72,0.00,OVC,SKC,0.00,0.0,WeatherDisplay:10.37,2013-03-12 17:00:00,
2013-03-12 13:10:00,44.3,35.5,29.83,WNW,296,10.0,24.0,71,0.00,OVC,SKC,0.00,0.0,WeatherDisplay:10.37,2013-03-12 17:10:00,
2013-03-12 13:20:00,45.0,36.1,29.83,West,267,13.0,25.0,71,0.00,OVC,SKC,0.00,0.0,WeatherDisplay:10.37,2013-03-12 17:20:00,
2013-03-12 13:30:00,44.7,35.9,29.83,West,280,12.0,25.0,71,0.00,OVC,SKC,0.00,0.0,WeatherDisplay:10.37,2013-03-12 17:30:00,
2013-03-12 13:40:00,44.7,35.1,29.84,SSE,151,12.0,25.0,69,0.00,OVC,SKC,0.00,0.0,WeatherDisplay:10.37,2013-03-12 17:40:00,
2013-03-12 13:50:00,44.0,35.2,29.83,SSE,151,12.0,25.0,71,0.00,OVC,SKC,0.00,0.0,WeatherDisplay:10.37,2013-03-12 17:50:00,
2013-03-12 14:00:00,44.1,35.3,29.83,SSW,207,12.0,30.0,71,0.00,OVC,SKC,0.00,0.0,WeatherDisplay:10.37,2013-03-12 18:00:00,
2013-03-12 14:10:00,44.4,35.2,29.83,West,264,12.0,30.0,70,0.00,OVC,SKC,0.00,0.0,WeatherDisplay:10.37,2013-03-12 18:10:00,
2013-03-12 14:20:00,45.5,35.2,29.83,South,180,16.0,30.0,67,0.00,OVC,SKC,0.00,0.0,WeatherDisplay:10.37,2013-03-12 18:20:00,
2013-03-12 14:30:00,45.4,35.1,29.84,WNW,290,16.0,26.0,67,0.00,OVC,SKC,0.00,0.0,WeatherDisplay:10.37,2013-03-12 18:30:00,
2013-03-12 14:40:00,45.9,35.2,29.84,WNW,296,18.0,29.0,66,0.00,BKN,SKC,0.00,0.0,WeatherDisplay:10.37,2013-03-12 18:40:00,
2013-03-12 14:50:00,45.8,34.3,29.83,WNW,299,18.0,29.0,64,0.00,BKN,SKC,0.00,0.0,WeatherDisplay:10.37,2013-03-12 18:50:00,
2013-03-12 15:00:00,47.4,35.4,29.83,West,275,12.0,30.0,63,0.00,BKN,SKC,0.00,0.0,WeatherDisplay:10.37,2013-03-12 19:00:00,
2013-03-12 15:10:00,48.7,35.0,29.83,ESE,117,16.0,30.0,59,0.00,BKN,SKC,0.00,0.0,WeatherDisplay:10.37,2013-03-12 19:10:00,
2013-03-12 15:20:00,47.0,33.8,29.83,NE,37,16.0,26.0,60,0.00,BKN,SKC,0.00,0.0,WeatherDisplay:10.37,2013-03-12 19:20:00,
2013-03-12 15:30:00,46.7,34.0,29.83,WSW,249,12.0,26.0,61,0.00,BKN,SKC,0.00,0.0,WeatherDisplay:10.37,2013-03-12 19:30:00,
2013-03-12 15:40:00,47.3,33.7,29.82,West,272,12.0,24.0,59,0.00,BKN,SKC,0.00,0.0,WeatherDisplay:10.37,2013-03-12 19:40:00,
2013-03-12 15:50:00,49.1,34.0,29.83,ENE,72,16.0,24.0,56,0.00,SCT,SKC,0.00,0.0,WeatherDisplay:10.37,2013-03-12 19:50:00,
2013-03-12 16:00:00,50.6,34.6,29.83,NW,314,16.0,24.0,54,0.00,SCT,SKC,0.00,0.0,WeatherDisplay:10.37,2013-03-12 20:00:00,
2013-03-12 16:10:00,50.9,33.9,29.83,SE,128,12.0,24.0,52,0.00,CLR,SKC,0.00,0.0,WeatherDisplay:10.37,2013-03-12 20:10:00,
2013-03-12 16:20:00,49.7,32.3,29.83,SSW,212,12.0,23.0,51,0.00,CLR,SKC,0.00,0.0,WeatherDisplay:10.37,2013-03-12 20:20:00,
2013-03-12 16:30:00,49.6,32.7,29.83,WNW,299,12.0,23.0,52,0.00,CLR,SKC,0.00,0.0,WeatherDisplay:10.37,2013-03-12 20:30:00,
2013-03-12 16:40:00,49.1,31.8,29.84,WNW,290,12.0,21.0,51,0.00,CLR,SKC,0.00,0.0,WeatherDisplay:10.37,2013-03-12 20:40:00,
2013-03-12 16:50:00,49.2,32.7,29.83,SE,135,12.0,21.0,53,0.00,CLR,SKC,0.00,0.0,WeatherDisplay:10.37,2013-03-12 20:50:00,
2013-03-12 17:00:00,49.0,32.6,29.83,WNW,285,10.0,21.0,53,0.00,CLR,SKC,0.00,0.0,WeatherDisplay:10.37,2013-03-12 21:00:00,
2013-03-12 17:10:00,48.6,32.2,29.83,WNW,290,10.0,21.0,53,0.00,CLR,SKC,0.00,0.0,WeatherDisplay:10.37,2013-03-12 21:10:00,
2013-03-12 17:20:00,48.4,32.5,29.83,SSE,151,10.0,21.0,54,0.00,CLR,SKC,0.00,0.0,WeatherDisplay:10.37,2013-03-12 21:20:00,
2013-03-12 17:30:00,48.2,32.8,29.83,SSW,212,10.0,21.0,55,0.00,CLR,SKC,0.00,0.0,WeatherDisplay:10.37,2013-03-12 21:30:00,
2013-03-12 17:40:00,48.0,31.6,29.83,SSE,153,13.0,21.0,53,0.00,CLR,SKC,0.00,0.0,WeatherDisplay:10.37,2013-03-12 21:40:00,
2013-03-12 17:50:00,47.6,32.2,29.83,SSW,207,13.0,21.0,55,0.00,CLR,SKC,0.00,0.0,WeatherDisplay:10.37,2013-03-12 21:50:00,
2013-03-12 18:00:00,47.5,32.5,29.84,West,280,7.0,21.0,56,0.00,CLR,SKC,0.00,0.0,WeatherDisplay:10.37,2013-03-12 22:00:00,
2013-03-12 18:10:00,47.5,32.6,29.84,SE,142,13.0,21.0,56,0.00,CLR,SKC,0.00,0.0,WeatherDisplay:10.37,2013-03-12 22:10:00,
2013-03-12 18:20:00,47.5,31.7,29.84,SW,230,13.0,21.0,54,0.00,CLR,SKC,0.00,0.0,WeatherDisplay:10.37,2013-03-12 22:20:00,
2013-03-12 18:30:00,47.4,32.0,29.85,WSW,249,13.0,21.0,55,0.00,CLR,SKC,0.00,0.0,WeatherDisplay:10.37,2013-03-12 22:30:00,
2013-03-12 18:40:00,46.6,31.7,29.85,South,191,9.0,21.0,56,0.00,CLR,SKC,0.00,0.0,WeatherDisplay:10.37,2013-03-12 22:40:00,
2013-03-12 18:50:00,45.5,31.1,29.86,SSE,165,9.0,20.0,57,0.00,CLR,SKC,0.00,0.0,WeatherDisplay:10.37,2013-03-12 22:50:00,
2013-03-12 19:00:00,44.7,31.6,29.86,SSW,202,9.0,20.0,60,0.00,CLR,SKC,0.00,0.0,WeatherDisplay:10.37,2013-03-12 23:00:00,
2013-03-12 19:10:00,44.0,31.4,29.87,West,272,9.0,20.0,61,0.00,CLR,SKC,0.00,0.0,WeatherDisplay:10.37,2013-03-12 23:10:00,
2013-03-12 19:20:00,43.5,30.9,29.87,WNW,291,10.0,20.0,61,0.00,CLR,SKC,0.00,0.0,WeatherDisplay:10.37,2013-03-12 23:20:00,
2013-03-12 19:30:00,43.0,30.9,29.88,SW,215,7.0,10.0,62,0.00,CLR,SKC,0.00,0.0,WeatherDisplay:10.37,2013-03-12 23:30:00,
2013-03-12 19:40:00,42.7,30.6,29.88,West,272,7.0,7.0,62,0.00,CLR,SKC,0.00,0.0,WeatherDisplay:10.37,2013-03-12 23:40:00,
2013-03-12 19:50:00,42.1,29.7,29.89,WSW,245,7.0,7.0,61,0.00,CLR,SKC,0.00,0.0,WeatherDisplay:10.37,2013-03-12 23:50:00,
2013-03-12 20:00:00,41.7,29.6,29.90,South,174,10.0,23.0,62,0.00,CLR,SKC,0.00,0.0,WeatherDisplay:10.37,2013-03-13 00:00:00,
2013-03-12 20:10:00,41.3,30.0,29.90,WNW,296,10.0,23.0,64,0.00,CLR,SKC,0.00,0.0,WeatherDisplay:10.37,2013-03-13 00:10:00,
2013-03-12 20:20:00,41.0,29.8,29.90,SW,220,8.0,23.0,64,0.00,CLR,SKC,0.00,0.0,WeatherDisplay:10.37,2013-03-13 00:20:00,
2013-03-12 20:30:00,40.7,29.5,29.90,West,264,8.0,8.0,64,0.00,CLR,SKC,0.00,0.0,WeatherDisplay:10.37,2013-03-13 00:30:00,
2013-03-12 20:40:00,40.4,29.6,29.91,West,279,8.0,8.0,65,0.00,CLR,SKC,0.00,0.0,WeatherDisplay:10.37,2013-03-13 00:40:00,
2013-03-12 20:50:00,40.1,29.6,29.91,West,280,7.0,8.0,66,0.00,CLR,SKC,0.00,0.0,WeatherDisplay:10.37,2013-03-13 00:50:00,
2013-03-12 21:00:00,39.9,29.5,29.91,West,264,7.0,7.0,66,0.00,CLR,SKC,0.00,0.0,WeatherDisplay:10.37,2013-03-13 01:00:00,
2013-03-12 21:10:00,39.6,28.8,29.91,WNW,288,7.0,7.0,65,0.00,CLR,SKC,0.00,0.0,WeatherDisplay:10.37,2013-03-13 01:10:00,
2013-03-12 21:20:00,39.4,29.0,29.91,WNW,288,6.0,7.0,66,0.00,CLR,SKC,0.00,0.0,WeatherDisplay:10.37,2013-03-13 01:20:00,
2013-03-12 21:30:00,39.1,29.1,29.92,West,279,6.0,6.0,67,0.00,CLR,SKC,0.00,0.0,WeatherDisplay:10.37,2013-03-13 01:30:00,
2013-03-12 21:40:00,38.9,28.9,29.92,WNW,286,7.0,7.0,67,0.00,CLR,SKC,0.00,0.0,WeatherDisplay:10.37,2013-03-13 01:40:00,
2013-03-12 21:50:00,38.7,29.0,29.92,West,279,8.0,8.0,68,0.00,CLR,SKC,0.00,0.0,WeatherDisplay:10.37,2013-03-13 01:50:00,
2013-03-12 22:00:00,38.7,29.0,29.92,WNW,290,8.0,8.0,68,0.00,CLR,SKC,0.00,0.0,WeatherDisplay:10.37,2013-03-13 02:00:00,
2013-03-12 22:10:00,38.5,28.9,29.92,WNW,285,8.0,8.0,68,0.00,CLR,SKC,0.00,0.0,WeatherDisplay:10.37,2013-03-13 02:10:00,
2013-03-12 22:20:00,38.4,29.1,29.92,WNW,300,7.0,8.0,69,0.00,CLR,SKC,0.00,0.0,WeatherDisplay:10.37,2013-03-13 02:20:00,
2013-03-12 22:30:00,38.3,29.0,29.92,WNW,296,7.0,7.0,69,0.00,CLR,SKC,0.00,0.0,WeatherDisplay:10.37,2013-03-13 02:30:00,
2013-03-12 22:40:00,38.1,29.2,29.92,WNW,299,7.0,7.0,70,0.00,CLR,SKC,0.00,0.0,WeatherDisplay:10.37,2013-03-13 02:40:00,
2013-03-12 22:50:00,38.0,29.1,29.92,WNW,288,6.0,7.0,70,0.00,CLR,SKC,0.00,0.0,WeatherDisplay:10.37,2013-03-13 02:50:00,
2013-03-12 23:00:00,37.9,29.0,29.93,West,266,7.0,7.0,70,0.00,CLR,SKC,0.00,0.0,WeatherDisplay:10.37,2013-03-13 03:00:00,
2013-03-12 23:10:00,37.8,29.2,29.93,West,266,5.0,7.0,71,0.00,CLR,SKC,0.00,0.0,WeatherDisplay:10.37,2013-03-13 03:10:00,
2013-03-12 23:20:00,37.7,29.1,29.93,WSW,249,5.0,5.0,71,0.00,CLR,SKC,0.00,0.0,WeatherDisplay:10.37,2013-03-13 03:20:00,
2013-03-12 23:30:00,37.6,29.0,29.93,West,260,5.0,5.0,71,0.00,CLR,SKC,0.00,0.0,WeatherDisplay:10.37,2013-03-13 03:30:00,
2013-03-12 23:40:00,37.4,29.2,29.92,WNW,288,8.0,8.0,72,0.00,CLR,SKC,0.00,0.0,WeatherDisplay:10.37,2013-03-13 03:40:00,
2013-03-12 23:50:00,37.2,29.0,29.92,West,279,8.0,8.0,72,0.00,CLR,SKC,0.00,0.0,WeatherDisplay:10.37,2013-03-13 03:50:00,